Location: Black Swamp Observatory
(41.3920°N, 84.1250°W)
Time: 12:35:01
(UTC-04:00)

Vanguard 2 - Pass Details

Date: 26 January 2022
Orbit: 552 x 2935 km, 32.9° (Epoch: 24 May)

Event Time Altitude Azimuth Distance (km) Brightness Sun altitude
Rises 20:25:28 0° 233° (SW) 3,835 11.8 -30.0°
Reaches altitude 10° 20:27:51 10° 226° (SW) 3,131 11.1 -30.4°
Maximum altitude 20:35:25 43° 157° (SSE) 2,197 9.5 -31.9°
Enters shadow 20:35:57 43° 150° (SSE) 2,245 9.5 -32.0°
